Latest Weather Observations for Frankston

IDV60801

Issued at 1:32 pm EST Thursday 1 September 2016 (issued every 30 minutes, with the page automatically refreshed every 10 minutes)

About weather observations | Map of weather stations | Latest weather observations for VIC | Other Formats
Station Details ID: 086371 Name: FRANKSTON AWS Lat: -38.15 Lon: 145.12 Height: 6.0 m
Data from the previous 72 hours. | See also: Recent months at Frankston
Date/Time
EST
Temp
°C
App
Temp
°C
Dew
Point
°C
Rel
Hum
%
Delta-T
°C
Wind Press
QNH
hPa
Press
MSL
hPa
Rain since
9am
mm
Dir  Spd
km/h
Gust
km/h
Spd
kts
Gust
kts
01/01:30pm 12.2 11.4 9.6 84 1.3 W 4 4 2 2 - - -
01/01:00pm 12.1 11.3 9.5 84 1.3 WNW 4 6 2 3 - - -
01/12:30pm 12.2 11.5 9.9 86 1.2 W 4 6 2 3 - - -
01/12:00pm 12.0 11.3 9.9 87 1.1 WSW 4 4 2 2 - - -
01/11:30am 11.8 11.0 9.7 87 1.1 WNW 4 6 2 3 - - -
01/11:00am 11.8 10.6 9.7 87 1.1 NW 6 7 3 4 - - -
01/10:30am 11.7 10.4 9.8 88 1.0 NW 7 9 4 5 - - -
01/10:00am 11.6 9.9 9.7 88 1.0 NW 9 11 5 6 - - -
01/09:30am 11.8 10.7 10.0 89 0.9 WNW 6 6 3 3 - - -
01/09:00am 11.6 10.2 9.7 88 1.0 WNW 7 9 4 5 - - -
01/08:30am 11.6 9.5 9.9 89 0.9 NW 11 13 6 7 - - -
01/08:00am 11.8 10.1 9.9 88 1.0 WNW 9 13 5 7 - - -
01/07:30am 11.9 8.7 9.8 87 1.1 W 17 20 9 11 - - -
01/07:00am 11.7 9.3 10.1 90 0.8 W 13 17 7 9 - - -
01/06:30am 11.8 9.1 10.2 90 0.8 W 15 19 8 10 - - -
01/06:00am 11.8 9.8 10.2 90 0.8 W 11 15 6 8 - - -
01/05:30am 11.9 9.9 10.3 90 0.8 WNW 11 13 6 7 - - -
01/05:00am 12.0 10.0 10.2 89 0.9 WNW 11 13 6 7 - - -
01/04:30am 12.0 9.6 10.2 89 0.9 WNW 13 17 7 9 - - -
01/04:00am 12.2 9.5 10.3 88 1.0 WNW 15 19 8 10 - - -
01/03:30am 12.3 10.0 10.4 88 1.0 W 13 17 7 9 - - -
01/03:00am 12.3 10.1 10.7 90 0.8 WNW 13 17 7 9 - - -
01/02:30am 12.3 9.7 10.7 90 0.8 WNW 15 19 8 10 - - -
01/02:00am 12.3 9.8 10.9 91 0.7 WNW 15 17 8 9 - - -
01/01:30am 12.4 10.2 10.8 90 0.8 WNW 13 17 7 9 - - -
01/01:00am 12.4 10.3 11.0 91 0.7 WNW 13 17 7 9 - - -
01/12:30am 12.5 9.9 10.7 89 0.9 WNW 15 19 8 10 - - -
01/12:00am 12.4 9.4 10.8 90 0.8 WNW 17 19 9 10 - - -
 
Date/Time
EST
Temp
°C
App
Temp
°C
Dew
Point
°C
Rel
Hum
%
Delta-T
°C
Wind Press
QNH
hPa
Press
MSL
hPa
Rain since
9am
mm
Dir  Spd
km/h
Gust
km/h
Spd
kts
Gust
kts
31/11:30pm 12.5 10.0 10.9 90 0.8 WNW 15 17 8 9 - - -
31/11:00pm 12.6 9.6 10.8 89 0.9 WNW 17 19 9 10 - - -
31/10:30pm 12.6 10.0 10.7 88 1.0 WNW 15 20 8 11 - - -
31/10:00pm 12.5 11.0 10.6 88 1.0 WNW 9 11 5 6 - - -
31/09:30pm 12.9 11.0 10.6 86 1.2 WNW 11 13 6 7 - - -
31/09:00pm 13.1 11.2 10.6 85 1.3 W 11 13 6 7 - - -
31/08:30pm 12.9 11.4 10.4 85 1.3 W 9 9 5 5 - - -
31/08:00pm 13.2 11.6 10.2 82 1.6 W 9 11 5 6 - - -
31/07:30pm 13.4 11.0 10.0 80 1.8 WSW 13 15 7 8 - - -
31/07:00pm 13.6 11.1 9.6 77 2.0 W 13 17 7 9 - - -
31/06:30pm 13.9 10.6 9.5 75 2.3 W 17 20 9 11 - - -
31/06:00pm 13.3 11.6 9.9 80 1.7 W 9 13 5 7 - - -
31/05:30pm 14.0 11.1 9.8 76 2.2 W 15 19 8 10 - - -
31/05:00pm 14.4 11.1 9.6 73 2.5 W 17 20 9 11 - - -
31/04:30pm 14.4 10.6 9.2 71 2.7 WNW 19 24 10 13 - - -
31/04:00pm 14.3 11.0 9.7 74 2.4 WNW 17 20 9 11 - - -
31/03:30pm 14.2 11.0 10.0 76 2.2 W 17 20 9 11 - - -
31/03:00pm 13.6 10.0 10.4 81 1.7 WSW 20 28 11 15 - - -
31/02:30pm 13.7 12.0 9.9 78 2.0 WSW 9 13 5 7 - - -
31/02:00pm 14.0 12.4 10.2 78 2.0 WSW 9 15 5 8 - - -
31/01:30pm 13.8 11.5 10.4 80 1.8 WSW 13 17 7 9 - - -
31/01:00pm 14.0 12.1 10.4 79 1.9 WSW 11 15 6 8 - - -
31/12:30pm 13.6 12.5 10.6 82 1.6 WSW 7 13 4 7 - - -
31/12:00pm 13.7 11.3 9.9 78 2.0 WNW 13 17 7 9 - - -
31/11:30am 13.5 12.5 10.3 81 1.7 NW 6 7 3 4 - - -
31/11:00am 13.6 12.7 10.6 82 1.6 NNW 6 7 3 4 - - -
31/10:30am 13.7 11.8 10.5 81 1.7 NNW 11 13 6 7 - - -
31/10:00am 13.8 11.2 10.6 81 1.7 NNW 15 19 8 10 - - -
31/09:30am 14.2 11.7 11.2 82 1.6 NNW 15 20 8 11 - - -
31/09:00am 13.3 12.9 11.0 86 1.2 NNW 4 6 2 3 - - -
31/08:30am 14.0 13.1 11.3 84 1.4 N 7 9 4 5 - - -
31/08:00am 14.4 13.7 12.1 86 1.2 NNE 7 13 4 7 - - -
31/07:30am 13.2 12.9 11.4 89 1.0 ENE 4 7 2 4 - - -
31/07:00am 12.8 12.4 11.2 90 0.8 E 4 7 2 4 - - -
31/06:30am 13.0 12.6 11.2 89 0.9 NE 4 7 2 4 - - -
31/06:00am 13.1 12.7 11.2 88 1.0 ENE 4 6 2 3 - - -
31/05:30am 13.2 12.5 11.4 89 1.0 NNE 6 9 3 5 - - -
31/05:00am 13.3 11.3 11.4 88 1.0 N 13 17 7 9 - - -
31/04:30am 13.2 11.1 11.3 88 1.0 N 13 15 7 8 - - -
31/04:00am 13.4 11.3 11.3 87 1.1 N 13 19 7 10 - - -
31/03:30am 13.6 11.2 11.3 86 1.2 N 15 19 8 10 - - -
31/03:00am 13.6 11.2 11.3 86 1.2 N 15 17 8 9 - - -
31/02:30am 13.7 10.9 11.4 86 1.2 N 17 19 9 10 - - -
31/02:00am 13.5 12.3 11.6 88 1.0 N 9 13 5 7 - - -
31/01:30am 13.4 12.8 11.8 90 0.9 NE 6 9 3 5 - - -
31/01:00am 13.5 13.0 12.1 91 0.8 NE 6 7 3 4 - - -
31/12:30am 13.3 13.2 12.0 92 0.7 NE 4 9 2 5 - - -
31/12:00am 13.2 12.5 11.9 92 0.7 NE 7 9 4 5 - - -
 
Date/Time
EST
Temp
°C
App
Temp
°C
Dew
Point
°C
Rel
Hum
%
Delta-T
°C
Wind Press
QNH
hPa
Press
MSL
hPa
Rain since
9am
mm
Dir  Spd
km/h
Gust
km/h
Spd
kts
Gust
kts
30/11:30pm 13.1 12.2 11.5 90 0.8 NNE 7 9 4 5 - - -
30/11:00pm 13.1 11.9 11.5 90 0.8 N 9 13 5 7 - - -
30/10:30pm 13.1 11.8 11.2 88 1.0 N 9 11 5 6 - - -
30/10:00pm 13.9 11.0 10.9 82 1.6 N 17 22 9 12 - - -
30/09:30pm 14.2 10.8 10.4 78 2.0 NNE 19 22 10 12 - - -
30/09:00pm 14.5 12.2 10.5 77 2.1 NNE 13 17 7 9 - - -
30/08:30pm 14.9 10.9 10.3 74 2.4 NNE 22 32 12 17 - - -
30/08:00pm 15.3 11.6 10.1 71 2.7 NNE 20 28 11 15 - - -
30/07:30pm 15.6 12.3 9.7 68 3.1 NE 17 30 9 16 - - -
30/07:00pm 15.5 10.5 9.4 67 3.1 NNE 26 41 14 22 - - -
30/06:30pm 15.4 12.0 9.3 67 3.1 NNE 17 26 9 14 - - -
30/06:00pm 15.4 11.6 9.1 66 3.2 NNE 19 30 10 16 - - -
30/05:30pm 15.4 12.8 9.5 68 3.0 NNE 13 24 7 13 - - -
30/05:00pm 14.7 12.1 9.5 71 2.7 NE 13 19 7 10 - - -
30/04:30pm 15.2 10.7 8.7 65 3.3 NNE 22 32 12 17 - - -
30/04:00pm 16.2 12.0 7.4 56 4.4 NE 19 28 10 15 - - -
30/03:30pm 15.8 12.8 7.8 59 4.0 NE 13 22 7 12 - - -
30/03:00pm 15.7 12.1 8.4 62 3.7 NE 17 28 9 15 - - -
30/02:30pm 15.9 12.4 8.6 62 3.7 NE 17 30 9 16 - - -
30/02:00pm 15.9 12.3 8.4 61 3.8 NE 17 24 9 13 - - -
30/01:30pm 15.9 13.2 9.1 64 3.5 NE 13 24 7 13 - - -
30/01:00pm 15.3 13.6 9.9 70 2.8 ENE 9 15 5 8 - - -
30/12:30pm 14.2 13.1 9.8 75 2.3 ENE 6 15 3 8 - - -
30/12:00pm 13.5 12.1 9.0 74 2.3 ENE 6 9 3 5 - - -
30/11:30am 13.3 11.2 8.4 72 2.4 NE 9 19 5 10 - - -
30/11:00am 14.0 10.1 7.3 64 3.3 NE 17 28 9 15 - - -
30/10:30am 15.1 11.0 6.4 56 4.2 NNE 17 24 9 13 - - -
30/10:00am 15.1 12.7 5.3 52 4.6 ENE 7 13 4 7 - - -
30/09:30am 15.0 12.6 5.2 52 4.6 E 7 13 4 7 - - -
30/09:00am 14.7 12.3 5.2 53 4.5 E 7 11 4 6 - - -
30/08:30am 13.8 11.0 5.2 56 4.0 E 9 13 5 7 - - -
30/08:00am 13.9 11.4 4.8 54 4.2 ENE 7 13 4 7 - - -
30/07:30am 13.2 10.3 4.6 56 3.9 E 9 13 5 7 - - -
30/07:00am 13.6 10.3 4.5 54 4.2 E 11 15 6 8 - - -
30/06:30am 13.7 10.8 4.6 54 4.2 E 9 11 5 6 - - -
30/06:00am 13.5 11.0 4.6 55 4.1 ENE 7 13 4 7 - - -
30/05:30am 13.5 11.0 4.9 56 4.0 ENE 7 13 4 7 - - -
30/05:00am 13.1 10.6 5.0 58 3.7 E 7 11 4 6 - - -
30/04:30am 12.8 10.0 5.2 60 3.5 E 9 13 5 7 - - -
30/04:00am 12.8 10.6 5.5 61 3.4 ESE 6 7 3 4 - - -
30/03:30am 12.5 10.3 5.2 61 3.4 E 6 9 3 5 - - -
30/03:00am 12.4 9.6 5.1 61 3.4 E 9 13 5 7 - - -
30/02:30am 12.4 9.6 5.3 62 3.3 ESE 9 11 5 6 - - -
30/02:00am 12.4 10.0 5.3 62 3.3 ESE 7 11 4 6 - - -
30/01:30am 12.0 9.4 5.9 66 2.9 ESE 9 11 5 6 - - -
30/01:00am 12.4 9.8 6.0 65 3.0 ESE 9 13 5 7 - - -
30/12:30am 12.5 10.2 5.9 64 3.1 ESE 7 13 4 7 - - -
30/12:00am 13.0 10.3 5.4 60 3.5 ESE 9 13 5 7 - - -
 
Date/Time
EST
Temp
°C
App
Temp
°C
Dew
Point
°C
Rel
Hum
%
Delta-T
°C
Wind Press
QNH
hPa
Press
MSL
hPa
Rain since
9am
mm
Dir  Spd
km/h
Gust
km/h
Spd
kts
Gust
kts
29/11:30pm 12.9 10.5 5.1 59 3.6 SE 7 11 4 6 - - -
29/11:00pm 12.8 10.4 5.2 60 3.5 SE 7 13 4 7 - - -
29/10:30pm 13.4 11.5 5.1 57 3.9 ESE 4 6 2 3 - - -
29/10:00pm 14.2 11.9 5.0 54 4.3 NE 6 9 3 5 - - -
29/09:30pm 13.7 11.4 4.8 55 4.1 ESE 6 9 3 5 - - -
29/09:00pm 14.1 11.6 4.7 53 4.4 E 7 11 4 6 - - -
29/08:30pm 14.7 11.8 4.7 51 4.7 E 9 15 5 8 - - -
29/08:00pm 15.0 12.1 4.7 50 4.8 ESE 9 11 5 6 - - -
29/07:30pm 15.6 13.0 4.3 47 5.3 NE 7 9 4 5 - - -
29/07:00pm 16.0 13.1 4.4 46 5.4 NNE 9 13 5 7 - - -
29/06:30pm 16.7 13.8 4.4 44 5.8 NE 9 13 5 7 - - -
29/06:00pm 17.2 14.3 4.5 43 6.0 NNE 9 15 5 8 - - -
29/05:30pm 17.9 13.5 4.8 42 6.3 NNE 17 24 9 13 - - -
29/05:00pm 18.4 14.0 4.6 40 6.6 NNE 17 26 9 14 - - -
29/04:30pm 18.1 14.3 5.7 44 6.0 NNE 15 24 8 13 - - -
29/04:00pm 18.7 15.1 5.2 41 6.5 NNE 13 22 7 12 - - -
29/03:30pm 17.4 13.6 5.7 46 5.7 N 15 20 8 11 - - -
29/03:00pm 17.7 13.0 5.0 43 6.1 N 19 26 10 14 - - -
29/02:30pm 17.0 12.8 5.6 47 5.5 N 17 22 9 12 - - -
29/02:00pm 15.7 13.3 7.2 57 4.2 N 9 13 5 7 - - -

Other Formats:

Comma delimited format used in spreadsheet applications
http://www.bom.gov.au/fwo/IDV60801/IDV60801.94871.axf

JavaScript Object Notation format (JSON) in row-major order
http://www.bom.gov.au/fwo/IDV60801/IDV60801.94871.json